Regional Weather Roundup
Issued by NWS

Home | Current Version | Previous Version | Text Only | Print | Product List | Glossary Off
Versions: 1 2 3 4 5 6 7 8 9 10 11 12 13 14 15 16 17 18 19 20 21 22 23 24 25 26 27 28 29 30 31 32 33 34 35 36 37 38 39 40 41 42 43 44 45 46 47 48 49 50

051
ASUS44 KJAN 281210
RWRMS

MISSISSIPPI HOURLY WEATHER ROUNDUP
NATIONAL WEATHER SERVICE JACKSON MS
600 AM CST FRI NOV 28 2014

NOTE: "FAIR: INDICATES FEW OR NO CLOUDS BELOW 12,000 FEET WITH NO
SIGNIFICANT WEATHER AND/OR OBSTRUCTIONS TO VISIBILITY.

MSZ001>002-007>008-010>013-018>021-025>028-034>036-281300-
NORTHWEST MISSISSIPPI

CITY           SKY/WX    TMP DP  RH WIND       PRES   REMARKS
CLARKSDALE     FAIR      32  28  86 SE5       30.43S WCI  27
CLEVELAND      FAIR      33  31  92 SE6       30.42S WCI  27
GREENWOOD      CLEAR     32  26  78 CALM      30.44R
6HR MIN TEMP:  29; 6HR MAX TEMP:  34;

GREENVILLE     CLEAR     33  29  85 SE7       30.42S WCI  27
6HR MIN TEMP:  29; 6HR MAX TEMP:  33;

GRENADA        FAIR      30  27  86 CALM      30.45R
OLIVE BRANCH   CLEAR     28  30 100 S7        30.41S WCI  21
OXFORD         FAIR      28  25  86 SE9       30.43F WCI  20
TUNICA         SUNNY     30  28  93 SE8       30.42F WCI  23
$$

MSZ003>006-009-014>017-022>024-029>033-037>039-281300-
NORTHEAST MISSISSIPPI

CITY           SKY/WX    TMP DP  RH WIND       PRES   REMARKS
COLUMBUS AFB   CLEAR     26  24  91 CALM      30.45S
6HR MIN TEMP:  24; 6HR MAX TEMP:  28;

CORINTH          N/A     25  23  93 CALM      30.43S
GOLDN TRIANGLE CLEAR     27  21  80 CALM      30.44R
STARKVILLE       N/A     27  25  93 CALM      30.44S
TUPELO         CLEAR     27  24  89 CALM      30.44S
6HR MIN TEMP:  25; 6HR MAX TEMP:  30;

$$

MSZ040-058-281300-
CENTRAL MISSISSIPPI

CITY           SKY/WX    TMP DP  RH WIND       PRES   REMARKS
JACKSON INTL   CLEAR     28  26  92 CALM      30.43R
6HR MIN TEMP:  28; 6HR MAX TEMP:  35;

JACKSON HAWKNS CLEAR     32  29  88 CALM      30.43S
6HR MIN TEMP:  30; 6HR MAX TEMP:  36;

MERIDIAN KEY   CLEAR     28  26  92 CALM      30.44S
6HR MIN TEMP:  28; 6HR MAX TEMP:  34;

MERIDIAN NAS   PTCLDY    29  26  89 CALM      30.44F
6HR MIN TEMP:  28; 6HR MAX TEMP:  34;

RAYMOND        FAIR      27  23  86 MISG      30.44R FOG
VICKSBURG      CLEAR     28  26  92 E3        30.43F
6HR MIN TEMP:  26; 6HR MAX TEMP:  30;

$$

MSZ059>079-281300-
SOUTH MISSISSIPPI

CITY           SKY/WX    TMP DP  RH WIND       PRES   REMARKS
BROOKHAVEN     FAIR      32  32 100 CALM      30.43S
HATTIESBURG    CLEAR     30  29  96 CALM      30.44S
6HR MIN TEMP:  29; 6HR MAX TEMP:  34;

MCCOMB         CLEAR     32  27  81 CALM      30.42S
6HR MIN TEMP:  32; 6HR MAX TEMP:  39;

NATCHEZ        CLEAR     36  28  75 SE5       30.42S WCI  32
6HR MIN TEMP:  32; 6HR MAX TEMP:  37;

PINE BELT      CLEAR     28  25  86 CALM      30.43S
6HR MIN TEMP:  28; 6HR MAX TEMP:  34;

$$

MSZ080>082-281300-
COASTAL MISSISSIPPI

CITY           SKY/WX    TMP DP  RH WIND       PRES   REMARKS
BILOXI         CLEAR     35  31  84 NE6       30.43R WCI  30
6HR MIN TEMP:  35; 6HR MAX TEMP:  42;

PASCAGOULA     CLEAR     29  27  92 CALM      30.43R
6HR MIN TEMP:  28; 6HR MAX TEMP:  38;

GULFPORT       CLEAR     33  31  92 CALM      30.44R
6HR MIN TEMP:  33; 6HR MAX TEMP:  41;

$$



USA.gov is the U.S. government's official web portal to all federal, state and local government web resources and services.